Terug naar catalogus

QIANFAN-133

ActiefCommunicatiePO
NORAD 69079·PAYLOAD·🇨🇳 China

Gelanceerd May 12, 2026 vanaf Taiyuan Satellite Launch Center

Loading…

Volgende Passages (komende 24 uur)

TLE

VersSource: Space-Track

Epoch: Sep 14, 2026, 14:52 UTC

1 69079U 26104G   26257.61970856  .00000122  00000-0  17069-3 0  9999
2 69079  88.9911 332.3452 0001915 112.6757 247.4597 13.51030203 17224

Volg QIANFAN-133 in realtime met AllMySat

Download on the App Store